WESTFORD NEEDLES, 602

Orbit data source: Space-Track

WESTFORD NEEDLES, 602 is space debris in LEO originally from a launch on Thu, 09 May 1963 UTC launched from the Air Force Western Test Range (AFWTR). Debris objects in space refer to the collection of defunct objects orbiting the Earth. Examples of debris include non-operational satellites, rocket bodies, and fragments generated from explosions, collisions, or faulty payload assembly.

Loading next visibility...
Identifier
602, 1963-014E
Orbit
LEO
Country
Flag of USUS
Related business
Manufacturer
Unknown
Mission
Spacecraft
Bus & Motor
Unknown
Mass
~10 kg wet, ~10 kg dry
Launch date (UTC)
1963-05-09 (63 years ago)
Launch vehicle
Unknown
Launch site
Air Force Western Test Range (AFWTR)
Object type
Payload
Rocket body
Debris
Shape & HBR
Unknown
Radar Cross Section
Medium (>0.1 m² and <1 m²)

Expand to show TLE details & history
Last TLE update: 13 hours ago

TLE from 13 hours ago
0 WESTFORD NEEDLES
1 00602U 63014E   26125.10454786  .00000019  00000-0  72559-2 0  9993
2 00602  87.3670 193.7471 0017311  93.6557 266.6279  8.67238047994107
Epoch: 2026-05-05T02:30Z
TLE epoch observation values (Epoch: 2026-05-05T02:30:32.935Z)
Latitude
0.00003°
Longitude
-66.87431°
Altitude
3,632.234 km
Speed
6.311 km/s
True Right ascension
12h 54m 59s
True Declination
0° 00' 00"
Sunlit
Object was in full shadow at epoch
Visualization orbit readout
Latitude
Unknown
Longitude
Unknown
Altitude
Unknown
Speed
Unknown
Apparent Right ascension
Unknown
Apparent Declination
Unknown
Sunlit
N/A
Visualization observer readout
Local Sidereal Time
23:13:48
Azimuth
Unknown
Elevation
Unknown
Doppler factor
Unknown
Orbital elements
Apogee altitude
3,644.134 km
Perigee altitude
3,609.495 km
Semi-major axis
10,004.952 km
Eccentricity
0.00173
Inclination
87.367°
RAAN
193.7471°
Arg. of periapsis
93.6557°
True anomaly
266.4299°
Mean anomaly
266.6279°
Eccentric anomaly
266.5289°
Mean motion
2.16881 °/min
Orbital period
165.99 mins
BSTAR
0.0072559
Loading maneuver chart data...
Computing Atmospheric mass density...

Documentation

Showing up to 5 results
|